Location: Aufkirchen
(47.9603°N, 11.3653°E)
Time: 13:06:11
(UTC+01:00)

Transit 2A Rocket - Pass Details

Date: 06 December 2020
Orbit: 592 x 910 km, 66.7° (Epoch: 21 January)

Event Time Altitude Azimuth Distance (km) Brightness Sun altitude
Rises 08:10:39 0° 327° (NNW) 3,166 7.6 2.1°
Reaches altitude 10° 08:13:14 10° 334° (NNW) 2,186 6.8 2.4°
Maximum altitude 08:17:56 44° 47° (NE) 924 5.6 3.0°
Drops below altitude 10° 08:22:16 10° 120° (ESE) 2,007 9.4 3.6°
Sets 08:24:32 0° 127° (SE) 2,878 11.1 3.9°
